Location: Castiglione Fibocchi
(43.5333°N, 11.7667°E)
Time: 13:47:39
(UTC+00:00)

IRAS Rocket - Pass Details

Date: 15 August 2020
Orbit: 847 x 878 km, 100.1° (Epoch: 24 September)

Event Time Altitude Azimuth Distance (km) Brightness Sun altitude
Exits shadow 00:50:04 80° 87° (E) 887 4.2 -28.7°
Maximum altitude 00:50:09 80° 73° (ENE) 886 4.2 -28.7°
Drops below altitude 10° 00:55:47 10° 346° (NNW) 2,531 7.3 -28.3°
Sets 00:58:10 0° 346° (NNW) 3,477 8.1 -28.1°
